{"data":{"norad_id":52362,"epoch":"2026-05-25T03:50:54.411936Z","epoch_age_seconds":61363,"freshness":"FRESH","line1":"1 52362U 22045AH  26145.16035199 -.00002338  00000+0 -12895-3 0  9998","line2":"2 52362  53.2155 205.8319 0000735  71.9297 288.1775 15.08817210227461","mean_motion":15.0881721,"eccentricity":7.35e-5,"inclination_deg":53.2155,"raan_deg":205.8319,"arg_perigee_deg":71.9297,"mean_anomaly_deg":288.1775,"bstar":-0.00012895,"rev_number":22746,"period_min":95.438996218767,"perigee_km":539.30458042498,"apogee_km":540.3215190823,"semimajor_km":6917.9500497536,"source":"CELESTRAK","updated_at":"2026-05-25T13:38:17.118722Z"}}